Zurück zum Katalog

STARLINK-4045

AktivKommunikationVLEO
NORAD 53152·PAYLOAD·🇺🇸 United States

Gestartet Jul 17, 2022 von Cape Canaveral Space Force Station

Loading…

Nächste Überflüge (nächste 24 Stunden)

TLE

AktuellSource: CelesTrak SupGP

Epoche: Sep 14, 2026, 21:14 UTC

1 53152C 22083W   26257.88520833  .00478200  00000+0  56846-3 0  2579
2 53152  53.2120 342.2022 0001591  50.9943  65.8317 16.07489900    17

Verfolge STARLINK-4045 in Echtzeit mit AllMySat

Download on the App Store